Macon, GA

11:46 PM EDT on April 24, 2017 (GMT -0400)
Middle Georgia Regional

Weather History for KMCN - June, 2013

Change the Weather History Date:

Tuesday, June 4, 2013

  Actual Average Record
Temperature  
Mean Temperature 79 °F 77 °F  
Max Temperature 89 °F 89 °F 103 °F (1985)
Min Temperature 68 °F 65 °F 49 °F (1969)
Degree Days  
Heating Degree Days 0 0  
Month to date heating degree days 0 0  
Since 1 June heating degree days 0 0  
Since 1 July heating degree days 2275 2322  
Cooling Degree Days 14 12  
Month to date cooling degree days 52 47  
Year to date cooling degree days 262 360  
Since 1 June cooling degree days 52 47  
Growing Degree Days 28 (Base 50)    
Moisture  
Dew Point 71 °F    
Average Humidity 78    
Maximum Humidity 100    
Minimum Humidity 55    
Precipitation  
Precipitation 0.28 in 0.13 in 1.73 in (1928)
Month to date precipitation 1.77 0.51  
Year to date precipitation 30.46 19.34  
Sea Level Pressure  
Sea Level Pressure 29.95 in    
Wind  
Wind Speed 3 mph (ENE)    
Max Wind Speed 17 mph    
Max Gust Speed 23 mph    
Visibility 7 miles    
Events Rain , Thunderstorm    
T = Trace of Precipitation, MM = Missing Value Source: NWS Daily Summary

Daily Weather History Graph

Daily Weather History Graph

Search for Another Location

Airport or City:

Trip Planner

Search our weather history database for the weather conditions in past years. The results will help you decide how hot, cold, wet, or windy it might be!

Date:

Astronomy

Jun. 04, 2013 Rise Set
Actual Time 6:26 AM EDT 8:39 PM EDT
Civil Twilight 5:58 AM EDT 9:07 PM EDT
Nautical Twilight 5:24 AM EDT 9:42 PM EDT
Astronomical Twilight 4:46 AM EDT 10:19 PM EDT
Moon 3:45 AM EDT (6/4) 5:16 PM EDT (6/4)
Length of Visible Light 15h 08m
Length of Day
14h 12m
Waning Crescent, 14% of the Moon is Illuminated
Jun 4
Waning Crescent
Jun 8
New
Jun 16
First Quarter
Jun 23
Full
Jun 30
Last Quarter

Hourly Weather History & Observations

Time (EDT) Temp. Heat Index Dew Point Humidity Pressure Visibility Wind Dir Wind Speed Gust Speed Precip Events Conditions
12:53 AM 73.0 °F - 72.0 °F 96% 29.94 in 10.0 mi Calm Calm - N/A   Overcast
1:53 AM 72.0 °F - 71.1 °F 97% 29.93 in 7.0 mi Calm Calm - N/A   Mostly Cloudy
2:53 AM 71.1 °F - 70.0 °F 96% 29.93 in 6.0 mi North 3.5 mph - N/A   Partly Cloudy
3:45 AM 69.8 °F - 69.8 °F 100% 29.93 in 2.5 mi WSW 3.5 mph - N/A   Clear
3:53 AM 70.0 °F - 70.0 °F 100% 29.92 in 3.0 mi Calm Calm - N/A   Clear
4:53 AM 68.0 °F - 68.0 °F 100% 29.92 in 3.0 mi Calm Calm - N/A   Clear
5:53 AM 70.0 °F - 69.1 °F 97% 29.94 in 4.0 mi Calm Calm - N/A   Overcast
6:42 AM 69.8 °F - 69.8 °F 100% 29.96 in 1.8 mi Calm Calm - N/A   Partly Cloudy
6:53 AM 69.1 °F - 69.1 °F 100% 29.95 in 2.5 mi Calm Calm - N/A   Partly Cloudy
7:01 AM 69.8 °F - 68.0 °F 94% 29.97 in 3.0 mi Calm Calm - N/A   Clear
7:53 AM 72.0 °F - 71.1 °F 97% 29.97 in 5.0 mi Calm Calm - N/A   Clear
8:53 AM 77.0 °F - 71.1 °F 82% 29.98 in 10.0 mi Calm Calm - N/A   Clear
9:53 AM 81.0 °F 84.9 °F 71.1 °F 72% 29.98 in 10.0 mi NE 4.6 mph - N/A   Clear
10:53 AM 82.9 °F 87.5 °F 71.1 °F 67% 29.98 in 10.0 mi Calm Calm - N/A   Scattered Clouds
11:53 AM 87.1 °F 92.8 °F 71.1 °F 59% 29.98 in 10.0 mi Calm Calm - N/A   Scattered Clouds
12:53 PM 84.9 °F 89.4 °F 70.0 °F 61% 29.98 in 10.0 mi Calm Calm - N/A   Overcast
1:53 PM 86.0 °F 90.7 °F 70.0 °F 59% 29.96 in 10.0 mi Calm Calm - N/A   Mostly Cloudy
2:53 PM 87.1 °F 92.0 °F 70.0 °F 57% 29.94 in 10.0 mi North 3.5 mph - N/A   Mostly Cloudy
3:53 PM 84.0 °F 87.0 °F 68.0 °F 58% 29.93 in 10.0 mi East 9.2 mph - N/A   Overcast
4:12 PM 80.6 °F 84.6 °F 71.6 °F 74% 29.95 in 1.5 mi West 8.1 mph - 0.00 in Rain , Thunderstorm Heavy Thunderstorms and Rain
4:20 PM 75.2 °F - 71.6 °F 89% 29.95 in 5.0 mi West 10.4 mph - 0.18 in Rain , Thunderstorm Heavy Thunderstorms and Rain
4:53 PM 75.0 °F - 73.0 °F 94% 29.94 in 5.0 mi WSW 8.1 mph - 0.27 in Rain , Thunderstorm Light Thunderstorms and Rain
5:53 PM 80.1 °F 84.2 °F 73.0 °F 79% 29.93 in 10.0 mi NNE 11.5 mph - 0.01 in Thunderstorm Thunderstorm
6:02 PM 80.6 °F 84.6 °F 71.6 °F 74% 29.94 in 10.0 mi NNE 9.2 mph - N/A   Partly Cloudy
6:53 PM 82.0 °F 86.7 °F 72.0 °F 71% 29.93 in 10.0 mi NE 4.6 mph - N/A   Clear
7:53 PM 80.1 °F 83.8 °F 72.0 °F 76% 29.95 in 9.0 mi East 3.5 mph - N/A   Partly Cloudy
8:53 PM 75.9 °F - 73.0 °F 91% 29.96 in 6.0 mi ESE 5.8 mph - N/A   Scattered Clouds
9:53 PM 75.0 °F - 71.1 °F 87% 29.97 in 10.0 mi SE 8.1 mph - N/A   Partly Cloudy
10:53 PM 73.9 °F - 71.1 °F 91% 29.99 in 10.0 mi ESE 12.7 mph - N/A   Partly Cloudy
11:53 PM 73.0 °F - 70.0 °F 90% 30.00 in 10.0 mi SE 5.8 mph - N/A   Scattered Clouds